Regional Weather Roundup
Issued by NWS

Home | Current Version | Previous Version | Text Only | Print | Product List | Glossary Off
Versions: 1 2 3 4 5 6 7 8 9 10 11 12 13 14 15 16 17 18 19 20 21 22 23 24 25 26 27 28 29 30 31 32 33 34 35 36 37 38 39 40 41 42 43 44 45 46 47 48 49 50

000
ASUS43 KMPX 031310
RWRMN
WEATHER ROUNDUP FOR MINNESOTA
NATIONAL WEATHER SERVICE TWIN CITIES/CHANHASSEN MN
800 AM CDT MON AUG 03 2015


NOTE: "FAIR" INDICATES FEW OR NO CLOUDS BELOW 12,000 FEET WITH NO
SIGNIFICANT WEATHER AND/OR OBSTRUCTIONS TO VISIBILITY. N/A MEANS
CURRENT SKY AND/OR WEATHER CONDITIONS ARE NOT AVAILABLE.

MNZ060>063-068>070-031400-
   Twin Cities Metro

CITY           SKY/WX    TMP DP  RH WIND       PRES   REMARKS
TWIN CITIES    SUNNY     66  53  63 NW7       29.89R
ST PAUL        SUNNY     65  53  65 VRB5      29.89R
CRYSTAL        SUNNY     65  53  65 NW9       29.88R
BLAINE         SUNNY     64  55  72 W6        29.88S
LAKEVILLE      SUNNY     61  55  82 W6        29.91R
EDEN PRAIRIE   SUNNY     66  53  63 NW7       29.90R
SOUTH ST PAUL  SUNNY     65  53  64 W6        29.89S
LAKE ELMO      FAIR      63  55  77 W7        29.89S
$$
MNZ001>005-007-008-013>017-022>024-027-028-031400-
   Northwest Minnesota

CITY           SKY/WX    TMP DP  RH WIND       PRES   REMARKS
BEMIDJI        SUNNY     58  49  71 NW9       29.90R
HALLOCK        SUNNY     57  52  82 NW8       29.91R
ROSEAU         SUNNY     57  52  82 NW8       29.88S
WARROAD        SUNNY     55  52  88 W7        29.87S
THIEF RVR FALL SUNNY     55  50  82 W8        29.92R
CROOKSTON      SUNNY     55  52  88 W6        29.93R
FOSSTON        SUNNY     55  50  82 W5        29.93R
DETROIT LAKES  SUNNY     59  50  72 NW6       29.94S
MOORHEAD       SUNNY     55  50  82 CALM      29.95R
PARK RAPIDS    SUNNY     57  50  77 W8        29.92R
MAHNOMEN       FAIR      54  51  89 CALM      29.93R
$$
MNZ006-009>011-018-025>026-031400-
   North Central Minnesota

CITY           SKY/WX    TMP DP  RH WIND       PRES   REMARKS
BAUDETTE       CLOUDY    58  52  80 W12G18    29.85R
FLAG ISLAND    CLOUDY    57  54  88 NW15      29.83R
INTL FALLS     CLOUDY    59  52  77 W7        29.81R
WASKISH        MOSUNNY   57  52  82 W12G18    29.87R
BIG FORK       MOSUNNY   61  52  72 NW5       29.85S
LONGVILLE      SUNNY     61  50  67 NW7G17    29.88S
GRAND RAPIDS   SUNNY     61  48  63 NW13G21   29.86R
CRANE LAKE     CLOUDY    57  52  82 W5        29.80S
ORR            CLOUDY    57  50  77 W8        29.79S
COOK           CLOUDY    57  52  82 W10       29.82R
WALKER         FAIR      56  48  74 NW9       29.90S
$$
MNZ012-019>021-037-031400-
   Northeast Minnesota

CITY           SKY/WX    TMP DP  RH WIND       PRES   REMARKS
DULUTH         MOSUNNY   61  49  64 NW13G23   29.82R
ELY            CLOUDY    57  50  77 NW7G17    29.78R
HIBBING        CLOUDY    59  50  72 NW14G20   29.82S
EVELETH        MOSUNNY   59  50  72 W10G18    29.82S
DULUTH HARBOR  SUNNY     64  54  68 W14       29.81R
TWO HARBORS    SUNNY     63  54  72 W6        29.77S
SILVER BAY     MOSUNNY   57  48  72 W5        29.76R
GRAND MARAIS     N/A     51  45  79 N5        29.72R
G MARAIS ARPRT DRIZZLE   54  48  82 NW6       29.75R
$$
MNZ029>031-032-039>041-046>048-054>057-064-031400-
   West Central Minnesota

CITY           SKY/WX    TMP DP  RH WIND       PRES   REMARKS
FERGUS FALLS   SUNNY     55  54  94 NW5       29.94S
WHEATON        SUNNY     61  54  77 W5        29.97R
MORRIS         SUNNY     57  55  94 NW6       29.94R
ALEXANDRIA     SUNNY     61  54  77 VRB5      29.95R
ELBOW LAKE     FAIR      56  52  86 NW7       29.95R
WADENA         SUNNY     55  52  88 W5        29.92S
GLENWOOD       SUNNY     61  54  77 W7        29.94S
APPLETON       SUNNY     61  54  77 W5        29.95R
BENSON         SUNNY     59  52  77 N7        29.94R
ORTONVILLE     SUNNY     63  54  72 W5        29.96R
MADISON        SUNNY     59  54  82 NW6       29.96R
WILLMAR        FAIR      57  55  94 W5        29.95R
$$
MNZ033>034-036-042>043-049>051-058-059-031400-
   Central Minnesota

CITY           SKY/WX    TMP DP  RH WIND       PRES   REMARKS
ST CLOUD       SUNNY     60  54  80 NW7       29.91R
SAUK CENTRE    FAIR      58  54  86 W6        29.94R
PAYNESVILLE    SUNNY     55  53  91 SW5       29.94R
AITKIN         SUNNY     63  52  67 W3        29.87R
PINE RIVER     SUNNY     61  50  67 NW9       29.93R
BRAINERD       SUNNY     63  48  58 NW10      29.90R
STAPLES        SUNNY     57  52  82 W5        29.92R
LONG PRAIRIE   FAIR      59  52  77 NW5       29.93S
LITCHFIELD     SUNNY     63  55  77 NW7       29.93R
BUFFALO        SUNNY     62  53  71 W5        29.92R
MAPLE LAKE     SUNNY     63  55  77 W3        29.92R
$$
MNZ037-044-045-052-053-031400-
   East Central Minnesota

CITY           SKY/WX    TMP DP  RH WIND       PRES   REMARKS
PRINCETON      SUNNY     61  54  77 W6        29.90R
MORA           SUNNY     59  46  63 NW9       29.89S
CAMBRIDGE      SUNNY     63  50  63 W6        29.87S
RUSH CITY      SUNNY     60  52  73 W5        29.88R
MOOSE LAKE     SUNNY     59  50  72 W7        29.84S
HINCKLEY       FAIR      61  52  72 W7        29.87R
CLOQUET        SUNNY     61  48  63 W13       29.84R
MCGREGOR       SUNNY     61  50  67 NW9       29.87R
$$
MNZ071>073-080-081-089-090-097-098-031400-
   Southwest Minnesota

CITY           SKY/WX    TMP DP  RH WIND       PRES   REMARKS
MONTEVIDEO     SUNNY     63  57  82 NW5       29.97R
GRANITE FALLS  SUNNY     57  54  89 W5        29.97R
CANBY          SUNNY     62  55  79 W5        29.98R
MARSHALL       SUNNY     61  52  72 NW7       29.97R
REDWOOD FALLS  SUNNY     61  53  75 NW6       29.95R
OLIVIA         SUNNY     57  52  82 W7        29.94R
PIPESTONE      SUNNY     59  57  94 CALM      29.99R
WINDOM         SUNNY     61  54  77 CALM      29.98R
WORTHINGTON    SUNNY     61  54  77 W5        29.99R
JACKSON        SUNNY     61  55  82 CALM      29.98S
TRACY          SUNNY     63  54  72 W5        29.98R
SLAYTON        SUNNY     62  55  77 CALM      30.00R
$$
MNZ065>067-074>077-082>085-091>093-031400-
   South Central Minnesota

CITY           SKY/WX    TMP DP  RH WIND       PRES   REMARKS
MANKATO        SUNNY     59  54  82 W5        29.94R
NEW ULM        SUNNY     59  55  88 W7        29.94R
ST JAMES       SUNNY     63  55  77 SW3       29.96S
FAIRMONT       SUNNY     61  52  72 CALM      29.96R
GLENCOE        SUNNY     59  55  87 SW3       29.92R
FARIBAULT      SUNNY     63  55  77 W6        29.92R
OWATONNA       SUNNY     61  55  82 W5        29.93R
WASECA         SUNNY     55  55 100 W6        29.95R
ALBERT LEA     SUNNY     63  57  82 W5        29.94R
$$
MNZ078>079-086>088-094>096-031400-
   Southeast Minnesota

CITY           SKY/WX    TMP DP  RH WIND       PRES   REMARKS
ROCHESTER      SUNNY     61  54  77 W8        29.93R
RED WING       SUNNY     63  55  77 W5        29.88R
STANTON        SUNNY     62  55  77 W5        29.90R
DODGE CENTER   MOSUNNY   59  54  82 W9        29.92R
WINONA         SUNNY     63  54  72 CALM      29.89R
AUSTIN         SUNNY     64  54  68 SW5       29.93R
PRESTON        SUNNY     61  53  74 W7        29.92S
$$
ABBREVIATIONS USED IN REMARKS
   TC - TEMPERATURES IN CELSIUS
  WCI - WIND CHILL INDEX
   HX - HEAT INDEX
  VSB - VISIBILITY
$$



USA.gov is the U.S. government's official web portal to all federal, state and local government web resources and services.